www.pogodaiklimat.ru

Погода и климат >> Архив погоды >> Антарктида >> S.a.n.a.e. aws


ПОГОДА в S.a.n.a.e. aws

  • Прогноз погоды в S.a.n.a.e. aws
  • Монитор погоды в S.a.n.a.e. aws
  • Климат города

АРХИВ ПОГОДЫ в S.a.n.a.e. aws

Время (UTC), дата Ветер
(напр.,м/с)
 
Видим.   Явления Облачность Т
(С)
Тd
(С)
f
(%)
Тe
(С)
Тes
(С)
Комфортность P
(гПа)
Po
(гПа)
Тmin
(С)
Tmax
(С)
R
(мм)
R24
(мм)
S
(см)
09 11.08 ЮВ 9 10 км метель 1/1 1000 м
[Sc Ci sp]
-28.3 -34.0 58 -44 -44 опасность
обморожения
976.5 868.4 -32.1 -27.8
12 11.08 ЮВ 18 200 м сильная метель 1/1 1000 м
[Sc]
-27.8 -32.4 65 -48 -48 опасность
обморожения
969.8 862.7 -32.1 -26.6
15 11.08 штиль 23 н/о н/о -26.2 -29.9 71 -26 -26 961.8 856.2 -29.4 -25.4
18 11.08 ЮВ 26 200 м сильная метель 1/1 1000 м
[Sc]
-23.7 -27.4 71 -45 -45 опасность
обморожения
957.3 853.2 -29.4 -22.9
21 11.08 ЮВ 29 н/о н/о -24.0 -28.0 69 -46 -46 опасность
обморожения
954.7 850.7 -29.4 -22.3
00 12.08 ЮВ 30 н/о н/о -28.1 -31.3 74 -52 -52 опасность
обморожения
953.4 848.0 -29.4 -22.3
03 12.08 ЮВ 15 н/о н/о -25.2 -28.4 75 -43 -43 опасность
обморожения
961.5 856.3 -29.4 -22.3
06 12.08 ЮВ 14 5000 м метель 3/3 1000 м
[Sc Ci sp]
-20.8 -27.2 56 -37 -37 опасность
обморожения
965.3 861.4 -29.4
09 12.08 ЮВ 5 н/о н/о -18.9 -25.0 59 -28 -28 975.3 871.1 -29.4 -17.3
12 12.08 СВ 7 500 м слабый снег 10/0 1000 м
[As op]
-17.0 -19.0 84 -28 -28 979.3 875.4 -29.4 -14.7
15 12.08 СВ 12 н/о н/о -20.8 -23.2 81 -36 -36 опасность
обморожения
983.4 877.6 -21.2 -14.7
18 12.08 СВ 5 20 км {снег} 10/10 600 м
[Sc]
-22.2 -24.7 80 -33 -33 опасность
обморожения
987.5 880.7 -22.5 -14.7
21 12.08 В 7 н/о н/о -23.3 -25.9 79 -36 -36 опасность
обморожения
988.1 880.8 -24.4 -14.7
00 13.08 ЮВ 8 н/о н/о -19.8 -22.5 79 -32 -32 опасность
обморожения
986.7 880.9 -24.4 -14.7
03 13.08 ЮВ 3 н/о н/о -20.7 -27.9 52 -29 -29 985.5 879.5 -24.4 -14.7
06 13.08 ЮВ 10 10 км метель 1/1 1000 м
[Sc Ci sp]
-23.8 -28.8 63 -39 -39 опасность
обморожения
986.3 879.0 -25.1
09 13.08 ЮВ 21 н/о н/о -21.5 -28.2 55 -40 -40 опасность
обморожения
980.5 874.7 -25.7 -20.2
12 13.08 ЮВ 23 500 м сильная метель 3/1 1000 м
[Sc Ci sp]
-23.3 -27.6 68 -43 -43 опасность
обморожения
978.7 872.4 -25.7 -20.2
15 13.08 ЮВ 21 н/о н/о -22.3 -28.6 56 -41 -41 опасность
обморожения
977.7 871.9 -25.1 -20.2
18 13.08 ЮВ 17 500 м сильная метель 1/1 1000 м
[Sc Ci sp]
-26.9 -31.1 67 -46 -46 опасность
обморожения
982.2 874.1 -27.0 -20.2
21 13.08 ЮВ 17 н/о н/о -27.9 -31.9 69 -48 -48 опасность
обморожения
984.3 875.5 -29.1 -20.2
00 14.08 ЮВ 27 н/о н/о -22.7 -26.7 70 -43 -43 опасность
обморожения
977.7 871.7 -29.1 -20.2
03 14.08 ЮВ 27 н/о н/о -24.0 -27.7 71 -45 -45 опасность
обморожения
976.8 870.4 -29.1 -20.2
06 14.08 ЮВ 29 100 м сильная метель 1/1 1000 м
[Sc Ci sp]
-23.8 -27.8 69 -46 -46 опасность
обморожения
977.7 871.3 -29.1
09 14.08 ЮВ 33 200 м сильная метель 5/1 1000 м
[Sc Cs]
-23.3 -28.1 65 -46 -46 опасность
обморожения
976.1 870.1 -29.1 -23.0
12 14.08 ЮВ 32 200 м сильная метель 4/1 1000 м
[Sc Ci sp]
-24.0 -28.8 64 -46 -46 опасность
обморожения
976.0 869.7 -29.1 -22.9
15 14.08 ЮВ 24 н/о н/о -22.1 -28.2 58 -42 -42 опасность
обморожения
976.9 871.3 -24.6 -21.2
18 14.08 ЮВ 19 1000 м метель 4/1 1000 м
[Sc Ac lent Ci sp]
-21.9 -31.8 40 -40 -40 опасность
обморожения
979.1 873.3 -24.6 -20.9
21 14.08 ЮВ 8 н/о н/о -18.6 -34.1 24 -30 -30 978.0 873.6 -24.6 -16.5
00 15.08 С 6 н/о н/о -26.2 -29.5 74 -38 -38 опасность
обморожения
979.0 871.5 -26.8 -16.5
03 15.08 В 8 н/о н/о -27.0 -30.1 75 -42 -42 опасность
обморожения
975.7 868.2 -27.8 -16.5
06 15.08 В 15 <100 м сильная метель 9/9 600 м
[Sc]
-28.9 -32.1 74 -48 -48 опасность
обморожения
975.8 867.6 -30.1
09 15.08 В 11 200 м слабый снег 10/0 1000 м
[As op]
-28.4 -31.6 74 -45 -45 опасность
обморожения
981.8 873.1 -30.1 -28.2
12 15.08 В 9 300 м слабый снег 10/0 1000 м
[As op]
-27.3 -30.4 75 -42 -42 опасность
обморожения
987.3 878.4 -30.1 -26.9
15 15.08 В 9 н/о н/о -30.0 -33.3 73 -46 -46 опасность
обморожения
993.6 882.9 -30.6 -26.9
18 15.08 В 9 20 км {снег} 1/1 1000 м
[Sc Ci sp]
-31.1 -34.7 70 -47 -47 опасность
обморожения
997.4 885.8 -31.1 -26.9
21 15.08 В 7 н/о н/о -30.9 -34.5 70 -46 -46 опасность
обморожения
999.5 887.8 -31.9 -26.9
00 16.08 ЮВ 2 н/о н/о -28.2 -32.2 68 -34 -34 опасность
обморожения
999.8 889.2 -31.9 -26.9
03 16.08 ЮВ 4 н/о н/о -30.3 -35.5 60 -42 -42 опасность
обморожения
1000.8 889.2 -31.9 -26.9
06 16.08 ЮВ 7 20 км 1/1 1000 м
[Sc]
-30.2 -35.8 58 -45 -45 опасность
обморожения
1000.4 888.9 -31.9
09 16.08 ЮВ 8 30 км позёмок {метель} 3/3 600 м
[Sc Ci sp]
-31.0 -37.3 54 -46 -46 опасность
обморожения
999.1 887.4 -32.5 -30.4
12 16.08 ЮВ 7 40 км {метель} 9/9 600 м
[Sc]
-29.9 -36.2 54 -44 -44 опасность
обморожения
998.8 887.6 -32.5 -29.9
15 16.08 В 2 н/о н/о -28.2 -35.4 50 -36 -36 опасность
обморожения
996.8 886.5 -30.7 -28.0
18 16.08 ЮВ 2 20 км 1/1 1000 м
[Sc Ci sp]
-30.5 -36.8 54 -38 -38 опасность
обморожения
997.0 885.7 -31.0 -27.7
21 16.08 В 5 н/о н/о -32.4 -38.6 54 -45 -45 опасность
обморожения
996.2 884.2 -32.9 -27.7
00 17.08 ЮВ 9 н/о н/о -32.8 -37.9 60 -50 -50 опасность
обморожения
994.3 882.3 -33.2 -27.7
03 17.08 ЮВ 10 н/о н/о -32.6 -37.7 60 -50 -50 опасность
обморожения
991.6 880.0 -33.3 -27.7
06 17.08 ЮВ 11 20 км метель 1/1 1000 м
[Sc]
-32.2 -37.5 59 -50 -50 опасность
обморожения
990.1 878.9 -33.5
09 17.08 ЮВ 10 40 км позёмок {метель} 1/0 2000 м
[Ci sp]
-31.8 -38.0 54 -49 -49 опасность
обморожения
989.4 878.4 -33.5 -31.0
12 17.08 ЮВ 11 30 км метель ясно -31.3 -37.5 54 -49 -49 опасность
обморожения
988.1 877.5 -33.5 -30.3
15 17.08 ЮВ 11 н/о н/о -31.2 -36.7 58 -49 -49 опасность
обморожения
986.8 876.4 -31.8 -30.2
18 17.08 ЮВ 13 20 км метель ясно -29.2 -34.8 58 -47 -47 опасность
обморожения
984.3 875.0 -31.8 -28.8
21 17.08 ЮВ 12 н/о н/о -30.0 -35.1 61 -48 -48 опасность
обморожения
984.0 874.4 -31.8 -28.8
00 18.08 ЮВ 11 н/о н/о -29.5 -35.3 57 -47 -47 опасность
обморожения
983.1 873.8 -31.8 -28.6
03 18.08 ЮВ 9 н/о н/о -30.3 -36.4 55 -47 -47 опасность
обморожения
984.5 874.7 -31.8 -28.4
06 18.08 ЮВ 9 20 км позёмок {метель} ясно -31.2 -37.1 56 -48 -48 опасность
обморожения
983.5 873.4 -31.8

 

Местоположение метеостанции S.a.n.a.e. aws (Антарктида): широта -71.70 долгота -2.80 высота над уровнем моря 817 м.

В архиве по умолчанию представлена погода в S.a.n.a.e. aws за последнюю неделю. Архивные данные за месяц целиком и за предыдущие месяцы, начиная с января 2011 года, Вы можете получить, выбрав интересующий диапазон дат из раскрывающегося списка и нажав кнопку "Ввод!".

Внимание! Время в таблицах - всемирное. Для получения местного времени необходимо прибавить поправку, которая в S.a.n.a.e. aws равна 0 ч.

Смотрите также архив погоды в соседних городах и на ближайших метеорологических станциях:

Погода в Troll (Антарктида) (183 км)
Погода в Neumayer (Антарктида) (227 км)
Погода в Kohnen Ep9 (Антарктида) (378 км)
Погода в Nordenskiold Base (Антарктида) (386 км)
Погода в Maitri (Антарктида) (530 км)
Погода в Novolazarevskaja (Антарктида) (532 км)
Погода в Halley (Антарктида) (851 км)
Погода в Base Belgrano Ii (Антарктида) (1130 км)
Погода в Relay Station (Антарктида) (1487 км)
Погода в Syowa (Антарктида) (1578 км)

Пояснения к столбцам:

Ветер - указаны скорость ветра в м/с - средняя за 10 мин, порывы в срок и между сроками (в фигурных скобках) и направление, откуда дует ветер: С - северный, СВ - северо-восточный, В - восточный, ЮВ - юго-восточный, Ю - южный, ЮЗ - юго-западный, З - западный, СЗ - северо-западный.
Видимость - горизонтальная дальность видимости в метрах или километрах. При видимости от 1 до 10 км при отсутствии осадков обычно наблюдается дымка, при ухудшении видимости до 1 км и менее - туман. В сухую погоду видимость может ухудшаться дымом, пылью или мглою.
Явления - указаны атмосферные явления, наблюдавшиеся в срок или в последний час перед сроком; фигурными скобками обозначены явления, наблюдавшиеся между сроками (за 1-3 часа до срока); квадратными скобками обозначены град или гололедные отложения с указанием их диаметра в мм.
Облачность - указаны через наклонную черту общая и нижняя облачность в баллах и высота нижней границы облаков в метрах; квадратными скобками обозначены формы облаков: Ci - перистые, Cs - перисто-слоистые, Cc - перисто-кучевые, Ac - высококучевые, As - высокослоистые, Sc - слоисто-кучевые, Ns - слоисто-дождевые, Cu - кучевые, Cb - кучево-дождевые. Подробнее классификацию облаков см. в Атласе облаков (PDF).
T - Температура воздуха - температура, измеренная на высоте 2 м над землей.
Td - Температура точки росы - температура, при понижении до которой содержащийся в воздухе водяной пар достигнет насыщения.
f - Относительная влажность воздуха - влажноcть воздуха, измеренная на высоте 2 м над землей.
Te - Эффективная температура - температура, которую ощущает одетый по сезону человек в тени. Характеристика душности погоды. При расчете учитывается влияние влажности воздуха и скорости ветра на теплоощущения человека.
Tes - Эффективная температура на солнце - температура, которую ощущает человек, с поправкой на солнечный нагрев. Характеристика знойности погоды. Зависит от высоты солнца над горизонтом, облачности и скорости ветра. Ночью, в пасмурную погоду, а также при ветре 12 м/с и более поправка равна нулю.
P - Атмосферное давление - приведенное к уровню моря атмосферное давление.
Po - Атмосферное давление - измеренное на уровне метеостанции атмосферное давление.
Tmin - Минимальная температура - минимум температуры воздуха на высоте 2 м над землей.
Tmax - Максимальная температура - максимум температуры воздуха на высоте 2 м над землей.
R - Количество осадков - Количество выпавших осадков за период времени, мм. При наведении курсора мыши на число - период времени, за который выпало указанное количество осадков.
R24 - Количество осадков - Количество выпавших осадков за 24 часа, мм.
S - Снежный покров - Высота снежного покрова, см. При наведении курсора мыши на число - состояние снежного покрова и степень покрытия местности в баллах.